CZ-8A R/B, 62980

Orbit data source: Space-Track

CZ-8A R/B, 62980 is space debris in LEO originally from a launch on Tue, 11 Feb 2025 UTC launched from the Wenchang Satellite Launch Center (WSC). Debris objects in space refer to the collection of defunct objects orbiting the Earth. Examples of debris include non-operational satellites, rocket bodies, and fragments generated from explosions, collisions, or faulty payload assembly.

Loading next visibility...
Identifier
62980, 2025-030K
Orbit
LEO
Country
Flag of CNCN / PRC
Related business
Manufacturer
CALT
Mission
Spacecraft
Bus & Motor
CZ-8A STAGE 3, Unknown motor
Mass
~2,800 kg wet, ~2,800 kg dry
Launch date (UTC)
2025-02-11 (7 months ago)
Launch vehicle
Unknown
Launch site
Wenchang Satellite Launch Center (WSC)
Object type
Payload
Rocket body
Debris
Shape & HBR
Cyl, 6.2 m
Radar Cross Section
Large (>1 m²)

Expand to show TLE details & history
Last TLE update: 1 day ago

TLE from 1 day ago
0 CZ-8A R/B
1 62980U 25030K   25260.61504343  .00000090  00000-0  87459-4 0  9992
2 62980  50.0071  21.3845 0118607 134.5801 226.4870 14.32798707 31289
Epoch: 2025-09-17T14:45Z
TLE epoch observation values (Epoch: 2025-09-17T14:45:39.752Z)
Latitude
-0.00004°
Longitude
163.18038°
Altitude
841.92 km
Speed
7.402 km/s
True Right ascension
01h 25m 32s
True Declination
0° 00' 00"
Sunlit
Object was in full shadow at epoch
Visualization orbit readout
Latitude
Unknown
Longitude
Unknown
Altitude
Unknown
Speed
Unknown
Apparent Right ascension
Unknown
Apparent Declination
Unknown
Sunlit
N/A
Visualization observer readout
Local Sidereal Time
17:16:38
Azimuth
Unknown
Elevation
Unknown
Doppler factor
Unknown
Orbital elements
Apogee altitude
868.069 km
Perigee altitude
698.194 km
Semi-major axis
7,161.268 km
Eccentricity
0.01186
Inclination
50.0071°
RAAN
21.3845°
Arg. of periapsis
134.5801°
True anomaly
225.51134°
Mean anomaly
226.487°
Eccentric anomaly
225.99817°
Mean motion
3.58144 °/min
Orbital period
100.52 mins
BSTAR
0.000087459
Loading maneuver chart data...
Computing Atmospheric mass density...
Loading historical data...
Loading historical data...
Loading historical data...
Loading historical data...
Loading historical data...
Loading historical data...
Loading historical data...

Documentation

Showing up to 5 results
|